STARLINK-1548, 46054

Orbit data source: Space-Track

STARLINK-1548, 46054 is a payload satellite owned by SpaceX/Seattle (US) in LEO that was launched on Fri, 07 Aug 2020 UTC via an FALCON 9 launch vehicle from the Air Force Eastern Test Range (AFETR). Payload-class satellites include a variety of spacecraft equipped with specific instruments for various scientific and technological missions. These include communications satellites like Starlink; space stations such as the ISS; scientific satellites like the Hubble; Earth observation satellites from companies like Planet Labs, Umbra, and HawkEye 360; GPS; miniature CubeSats for education and research; and military/defense satellites.

Loading next visibility...
Identifier
46054, 2020-055AD
Orbit
LEO
Last TLE update
18 hours ago
Origin
Manufacturer
SpaceX/Seattle
Mission
Operational Commercial Communications
Bus & Motor
STARLINK, Unknown motor
Mass
260 kg wet, ~248 kg dry
Launch date (UTC)
2020-08-07 (5 years ago)
Launch vehicle
FALCON 9
Launch site
Air Force Eastern Test Range (AFETR)
Object type
Payload
Rocket body
Debris
Shape & HBR
Box + 1 Pan, 8.86 m
Radar Cross Section
13.562 m², Large (>1 m²)

Expand to show TLE details & history

TLE from 18 hours ago
0 STARLINK-1548
1 46054U 20055AD  25128.50089284  .00000945  00000-0  82315-4 0  9996
2 46054  53.0562  46.6636 0001333  95.7192 264.3949 15.06398653263033
Epoch: 2025-05-08T12:01Z
Definitive object data (Epoch: 2025-05-08T12:01:17.141Z)
Latitude
-0.00002°
Longitude
-0.22832°
Altitude
548.185 km
Speed
7.589 km/s
True Right ascension
03h 06m 39s
True Declination
0° 00' 00"
Sunlit
Object was in daylight at TLE epoch
Visualization TLE readout
Latitude
2.66478°
Longitude
174.3538°
Altitude
547.6 km
Speed
7.59 km/s
Apparent Right ascension
15h 25m 45s
Apparent Declination
-61° 09' 18"
Sunlit
Object is in full shadow
Visualization observer readout
Local Sidereal Time
14:27:51
Azimuth
172.925° S
Elevation
-11.758°
Doppler factor
1
Orbital elements
Apogee altitude
548.409 km
Perigee altitude
546.563 km
Semi-major axis
6,925.623 km
Eccentricity
0.0001333
Inclination
53.0562°
RAAN
46.6636°
Arg. of periapsis
95.7192°
True anomaly
264.3797°
Mean anomaly
264.3949°
Eccentric anomaly
264.3873°
Mean motion
3.76578 °/min
BSTAR
0.000082315
Orbital period
95.6 mins
Loading maneuver chart data...
Loading SW <> Apogee altitude chart data...
Loading historical data...
Loading historical data...
Loading historical data...
Loading historical data...
Loading historical data...
Loading historical data...
Loading historical data...

STARLINK-1548 Visibility forecast

Observer location: undefined°, undefined°

Span
Click to sort rows by Start time (UTC) header in descending order
Start Az.
Max El. time (UTC)
Max El. Az.
Max El.
End time (UTC)
End Az.
6 mins2025-05-09 20:01:02.812Z181.498° SSW2025-05-09 20:04:02.812Z127.117° SE23.113°2025-05-09 20:07:02.812Z76.058° E
6 mins2025-05-09 21:41:02.812Z263.155° W2025-05-09 21:43:02.812Z315.29° NNW35.582°2025-05-09 21:47:02.812Z40.089° NE
5 mins2025-05-10 02:43:02.812Z341.04° N2025-05-10 02:45:02.812Z27.747° NE27.449°2025-05-10 02:48:02.812Z87.289° E
6 mins2025-05-10 04:22:02.812Z290.466° WNW2025-05-10 04:25:02.812Z210.312° SW33.878°2025-05-10 04:28:02.812Z156.968° SSE
|